Voltar ao catálogo

STARLINK-31114

AtivoComunicaçõesVLEO
NORAD 58766·PAYLOAD·🇺🇸 United States

Lançado Jan 14, 2024 de Vandenberg Space Force Base

Loading…

Próximas Passagens (próximas 24 horas)

TLE

AtualizadoSource: CelesTrak SupGP

Época: Sep 15, 2026, 01:46 UTC

1 58766C 24011B   26258.07409722 -.00019429  00000+0 -57429-3 0  2588
2 58766  53.1577 210.8714 0001144  76.4667 165.9378 15.34385894    11

Acompanhe STARLINK-31114 em tempo real com AllMySat

Download on the App Store